Regional Weather Roundup
Issued by NWS

Home | Current Version | Previous Version | Text Only | Print | Product List | Glossary Off
Versions: 1 2 3 4 5 6 7 8 9 10 11 12 13 14 15 16 17 18 19 20 21 22 23 24 25 26 27 28 29 30 31 32 33 34 35 36 37 38 39 40 41 42 43 44 45 46 47 48 49 50

000
ASUS45 KBOU 182007
RWRCO

WEATHER ROUNDUP FOR COLORADO
NATIONAL WEATHER SERVICE DENVER/BOULDER CO
200 PM MDT SAT APR 18 2015

NOTE: "FAIR" INDICATES FEW OR NO CLOUDS BELOW 12000 FEET WITH NO
SIGNIFICANT WEATHER AND/OR OBSTRUCTIONS TO VISIBILITY.

COZ001>005-013-030-031-182100-
...NORTHWEST COLORADO...

CITY           SKY/WX    TMP DP  RH WIND       PRES   REMARKS
CRAIG          SNOW      34  32  92 CALM      29.98S VSB 1/2
HAYDEN         CLOUDY    34  30  86 NE3       29.98R VSB 3/4
MEEKER         HVY SNOW  34  32  92 CALM      29.98S VSB 1/4
MOUNT WERNER   NOT AVBL
STEAMBOAT SPGS CLOUDY    34  30  86 CALM      29.97S
WALDEN         CLOUDY    32  27  80 CALM      29.95S
$$

COZ006>008-011-182100-
...WEST CENTRAL VALLEYS...

CITY           SKY/WX    TMP DP  RH WIND       PRES   REMARKS
GRAND JUNCTION CLOUDY    42  37  82 CALM      30.00F
MONTROSE       LGT RAIN  40  36  86 SE6       30.02S
EAGLE          FLURRIES  36  32  87 CALM      30.00F
RIFLE          SNOW      34  32  92 CALM      30.02R VSB 1/2
DELTA          CLOUDY    40  36  86 CALM      30.03S
NUCLA          CLOUDY    43  34  70 CALM      30.06F
$$

COZ017>023-064>068-182100-
...SOUTHWEST COLORADO...

CITY           SKY/WX    TMP DP  RH WIND       PRES   REMARKS
DURANGO        PTSUNNY   46  32  58 SW21G29   29.97F
CORTEZ         CLOUDY    48  37  65 W12       30.02F
PAGOSA SPRINGS CLOUDY    42  24  49 W13       29.97S
TELLURIDE      LGT SNOW  29  28  94 CALM      30.04S VSB 3/4
WOLF CREEK PAS SNOW      23  19  86 S14G23    30.02S VSB 1/2 WCI  11
$$

COZ009-010-012-014-032>034-037-058>063-182100-
...CENTRAL COLORADO...

CITY           SKY/WX    TMP DP  RH WIND       PRES   REMARKS
ASPEN          LGT SNOW  32  27  81 N3        29.96F
BUENA VISTA    PTSUNNY   37  22  56 CALM      29.92F
COPPER MTN     CLOUDY    27  18  69 W23G29    29.95R WCI  12
BERTHOUD PASS  CLOUDY    18  10  73 N5        29.97S WCI  11
COTTONWOOD PAS CLOUDY    34  23  64 E6        29.94S WCI  29
GUNNISON       CLOUDY    30  25  80 N6        30.01F WCI  24
KREMMLING      CLOUDY    39  30  70 W10       29.96S
LEADVILLE      FLURRIES  30  19  63 NW13      29.91F WCI  20
MONARCH PASS   CLOUDY    18  16  93 MISG      30.05F
SALIDA         PTSUNNY   43  25  48 E6        29.98F
SUNLIGHT       SNOW     N/A N/A N/A NW5       30.03S VSB 1/2
WILKERSON PASS NOT AVBL
$$

COZ069>075-182100-
...SAN LUIS VALLEY/SANGRE DE CRISTO MOUNTAINS...

CITY           SKY/WX    TMP DP  RH WIND       PRES   REMARKS
ALAMOSA        CLOUDY    45  18  34 VRB7G16   29.91F
LA VETA PASS   CLOUDY    32  19  59 S7G20     29.92S WCI  26
SAGUACHE       PTSUNNY   43  27  52 NW16G26   29.93F
$$

COZ035-036-038>040-182100-
...NORTHERN COLORADO FRONT RANGE...

CITY           SKY/WX    TMP DP  RH WIND       PRES   REMARKS
DENVER INTL AP PTSUNNY   50  34  54 E9        29.88F
DMNS CITY PARK   N/A     48  32  53 NE10G17   29.87F
AURORA         PTSUNNY   47  35  63 NE7       29.89F
FRONT RANGE AP PTSUNNY   48  36  61 NE3       29.89
ERIE MUNI ARPT MOSUNNY   51  32  48 CALM      29.88F
BOULDER MUN AP MOSUNNY   50  32  50 CALM      29.88F
CENTENNIAL     PTSUNNY   47  31  53 N12G18    29.88F
BROOMFIELD     MOSUNNY   48  36  61 E6        29.90F
FORT COLLINS   PTSUNNY   52  36  54 N5        29.90F
LONGMONT       MOSUNNY   58  35  40 CALM      29.89F
$$

COZ041-046-047-076>085-087-088-182100-
...PIKES PEAK/PALMER DIVIDE AND SOUTHERN FOOTHILLS...

CITY           SKY/WX    TMP DP  RH WIND       PRES   REMARKS
COLO. SPRINGS  PTSUNNY   44  33  65 SW17      29.88S
A. F. ACADEMY  MOSUNNY   48  24  38 N15       29.86F
ELLICOTT       PTSUNNY  N/A N/A N/A NE18G25   29.86S
FALCON         PTSUNNY   46  31  55 N15G21    29.88S
FORT CARSON    LGT RAIN  41  33  74 S16       29.87F
LIMON          CLOUDY    45  37  73 N14       29.88F
MONUMENT HILL  PTSUNNY   37  32  81 NE7       29.89S
TRINIDAD       SUNNY     55  17  22 N8        29.85F
$$

COZ042>045-048>051-090-091-182100-
...NORTHEAST COLORADO...

CITY           SKY/WX    TMP DP  RH WIND       PRES   REMARKS
GREELEY ARPT   PTSUNNY   52  36  54 E7        29.89F
AKRON          PTSUNNY   47  41  80 W16       29.86F
BURLINGTON     LGT RAIN  54  42  64 S3        29.83F
WRAY           PTSUNNY   60  44  55 E7        29.83F
STERLING       CLOUDY    52  43  71 NW6       29.86F
HOLYOKE        MOSUNNY   61  43  51 E10       29.84F
FORT MORGAN    CLOUDY    49  40  71 CALM      29.88F
$$

COZ086-089-092>099-182100-
...SOUTHEAST COLORADO...

CITY           SKY/WX    TMP DP  RH WIND       PRES   REMARKS
PUEBLO         MOSUNNY   54  29  38 SE3       29.84F
LA JUNTA       LGT RAIN  51  35  54 N12       29.85F
LAMAR          CLOUDY    60  33  36 CALM      29.82F
SPRINGFIELD      N/A     48  36  63 S8        29.88F
$$


USA.gov is the U.S. government's official web portal to all federal, state and local government web resources and services.